Regional Weather Roundup
Issued by NWS

Home | Current Version | Previous Version | Graphics & Text | Print | Product List | Glossary On
Versions: 1 2 3 4 5 6 7 8 9 10 11 12 13 14 15 16 17 18 19 20 21 22 23 24 25 26 27 28 29 30 31 32 33 34 35 36 37 38 39 40 41 42 43 44 45 46 47 48 49 50
000
ASUS45 KBOU 261507
RWRCO

WEATHER ROUNDUP FOR COLORADO
NATIONAL WEATHER SERVICE DENVER/BOULDER CO
800 AM MST MON JAN 26 2015

NOTE: "FAIR" INDICATES FEW OR NO CLOUDS BELOW 12000 FEET WITH NO
SIGNIFICANT WEATHER AND/OR OBSTRUCTIONS TO VISIBILITY.

COZ001>005-013-030-031-261600-
...NORTHWEST COLORADO...

CITY           SKY/WX    TMP DP  RH WIND       PRES   REMARKS
CRAIG          CLEAR      8   5  87 W3        30.48F
HAYDEN         CLEAR     25  18  74 E17       30.47S WCI  11
MEEKER         PTCLDY    12   8  84 NE5       30.47R WCI   4
MOUNT WERNER   NOT AVBL
STEAMBOAT SPGS   N/A     18  16  94 CALM      30.50S
WALDEN         PTCLDY    14  10  85 SE7       30.48R WCI   4
$$

COZ006>008-011-261600-
...WEST CENTRAL VALLEYS...

CITY           SKY/WX    TMP DP  RH WIND       PRES   REMARKS
GRAND JUNCTION PTCLDY    27  23  85 SE10      30.43R WCI  17
MONTROSE       PTCLDY    23  19  85 SE8       30.48R WCI  14
EAGLE          CLEAR     16  14  93 CALM      30.57R
RIFLE          CLEAR     24  20  84 S3        30.48R
DELTA          PTCLDY    25  21  85 CALM      30.48R
NUCLA          PTCLDY    30  23  74 NE5       30.46R WCI  25
$$

COZ017>023-064>068-261600-
...SOUTHWEST COLORADO...

CITY           SKY/WX    TMP DP  RH WIND       PRES   REMARKS
DURANGO        CLEAR     22  19  89 CALM      30.40S
CORTEZ         CLEAR     20  17  88 NE3       30.40S
PAGOSA SPRINGS CLEAR     22  17  79 CALM      30.44S
TELLURIDE      NOT AVBL
WOLF CREEK PAS NOT AVBL
$$

COZ009-010-012-014-032>034-037-058>063-261600-
...CENTRAL COLORADO...

CITY           SKY/WX    TMP DP  RH WIND       PRES   REMARKS
ASPEN          CLEAR     19  13  77 S6        30.48R WCI  11
BUENA VISTA    PTCLDY    30  19  63 W6        30.45R WCI  24
COPPER MTN     PTCLDY    34  10  37 NW5       30.58R WCI  30
BERTHOUD PASS  FAIR      25  19  80 NW12      30.60R WCI  14
COTTONWOOD PAS PTCLDY    43   7  22 NW5       30.48R
GUNNISON       PTCLDY    -2 -15  55 CALM      30.58R
KREMMLING      FOG      N/A N/A N/A CALM      30.57S VSB<1/4
LEADVILLE      PTCLDY    18  11  74 NE12      30.50R WCI   5
MONARCH PASS   PTCLDY    36   9  32 CALM      30.66R
SALIDA         PTCLDY    32  21  64 CALM      30.52R
SUNLIGHT       CLEAR     32  21  64 NE3         N/A
WILKERSON PASS CLEAR     37   7  28 NE13G22   30.54R
$$

COZ069>075-261600-
...SAN LUIS VALLEY/SANGRE DE CRISTO MOUNTAINS...

CITY           SKY/WX    TMP DP  RH WIND       PRES   REMARKS
ALAMOSA        PTCLDY    10   5  80 CALM      30.46R
LA VETA PASS   NOT AVBL
SAGUACHE       PTCLDY    27  18  69 N5        30.46R WCI  21
$$

COZ035-036-038>040-261600-
...NORTHERN COLORADO FRONT RANGE...

CITY           SKY/WX    TMP DP  RH WIND       PRES   REMARKS
DENVER INTL AP PTCLDY    42  25  50 SW13      30.25R
DMNS CITY PARK   N/A     41  22  46 S9G17     30.26S
AURORA         PTCLDY    41  23  49 S8        30.28R
FRONT RANGE AP NOT AVBL
ERIE MUNI ARPT CLEAR     34  27  74 S3        30.25S
BOULDER MUN AP CLEAR     46  21  36 SW7       30.24S
CENTENNIAL     PTCLDY    42  23  46 SW5       30.28R
BROOMFIELD     PTCLDY    45  23  42 W7        30.27R
FORT COLLINS   PTCLDY    37  25  60 S7        30.25R
LONGMONT       PTCLDY    37  26  64 SW5       30.26R
$$

COZ041-046-047-076>085-087-088-261600-
...PIKES PEAK/PALMER DIVIDE AND SOUTHERN FOOTHILLS...

CITY           SKY/WX    TMP DP  RH WIND       PRES   REMARKS
COLO. SPRINGS  PTCLDY    38  25  59 N9        30.31R
A. F. ACADEMY  CLEAR     33  22  64 NE7       30.32R WCI  27
ELLICOTT       PTCLDY   N/A N/A N/A NE5       30.30R
FALCON         PTCLDY    40  22  48 CALM      30.34R
FORT CARSON    CLEAR     38  24  57 N13       30.29R
LIMON          CLEAR     40  26  57 W10       30.26R
MONUMENT HILL  PTCLDY    36  23  60 S5        30.32R
TRINIDAD       PTCLDY    39  23  52 W16       30.31R
$$

COZ042>045-048>051-090-091-261600-
...NORTHEAST COLORADO...

CITY           SKY/WX    TMP DP  RH WIND       PRES   REMARKS
GREELEY ARPT   PTCLDY    30  21  69 CALM      30.23R
AKRON          PTCLDY    41  28  60 W14       30.21R
BURLINGTON     CLEAR     41  29  62 W12       30.18S
WRAY           CLEAR     46  31  55 W10       30.16S
STERLING       PTCLDY    45  32  61 S7        30.18R
HOLYOKE        CLEAR     43  32  65 W13       30.15R
FORT MORGAN    PTCLDY    36  28  73 W8        30.22S
$$

COZ086-089-092>099-261600-
...SOUTHEAST COLORADO...

CITY           SKY/WX    TMP DP  RH WIND       PRES   REMARKS
PUEBLO         CLEAR     28  24  85 W6        30.27R WCI  22
LA JUNTA       PTCLDY    38  27  64 W17       30.24R
LAMAR          CLEAR     36  30  79 W9        30.21R
SPRINGFIELD      N/A     42  28  57 W13       30.23R
$$



USA.gov is the U.S. government's official web portal to all federal, state and local government web resources and services.